Satellite: DO-64
Catalog number: 32789
Epoch time:      12033.88248916
Element set:    0221
Inclination:      097.8302 deg
RA of node:       100.0206 deg
Eccentricity:    0.0015902
Arg of perigee:   138.7683 deg
Mean anomaly:     221.4734 deg
Mean motion:   14.84872170 rev/day
Decay rate:      3.025e-05 rev/day^2
Epoch rev:           20379
Checksum:              295

Satellite: CO-66
Catalog number: 32791
Epoch time:      12034.80716732
Element set:     207
Inclination:      097.8205 deg
RA of node:       098.8971 deg
Eccentricity:    0.0016484
Arg of perigee:   136.4443 deg
Mean anomaly:     223.8070 deg
Mean motion:   14.82984967 rev/day
Decay rate:      1.355e-05 rev/day^2
Epoch rev:           20382
Checksum:              326

Satellite: RS-30
Catalog number: 32953
Epoch time:      12034.87439243
Element set:     489
Inclination:      082.5017 deg
RA of node:       018.6546 deg
Eccentricity:    0.0017457
Arg of perigee:   240.2754 deg
Mean anomaly:     119.6590 deg
Mean motion:   12.43020594 rev/day
Decay rate:        1.0e-07 rev/day^2
Epoch rev:           16787
Checksum:              299

Satellite: TACSAT-3
Catalog number: 35001
Epoch time:      12033.80813342
Element set:    0860
Inclination:      040.4468 deg
RA of node:       195.8471 deg
Eccentricity:    0.0005692
Arg of perigee:   013.5828 deg
Mean anomaly:     346.5199 deg
Mean motion:   15.71534632 rev/day
Decay rate:     7.6743e-04 rev/day^2
Epoch rev:           15303
Checksum:              295

Satellite: PHARMSAT
Catalog number: 35002
Epoch time:      12034.58323606
Element set:     785
Inclination:      040.4653 deg
RA of node:       194.3474 deg
Eccentricity:    0.0005185
Arg of perigee:   160.7121 deg
Mean anomaly:     199.3899 deg
Mean motion:   15.64020865 rev/day
Decay rate:     4.1458e-04 rev/day^2
Epoch rev:           15312
Checksum:              290

Satellite: METEOR-M
Catalog number: 35865
Epoch time:      12034.74211401
Element set:     122
Inclination:      098.6743 deg
RA of node:       091.4739 deg
Eccentricity:    0.0003296
Arg of perigee:   081.9944 deg
Mean anomaly:     278.1603 deg
Mean motion:   14.21854911 rev/day
Decay rate:       -1.3e-07 rev/day^2
Epoch rev:           12349
Checksum:              285

Satellite: RS-38
Catalog number: 35869
Epoch time:      12034.71217152
Element set:     118
Inclination:      098.6708 deg
RA of node:       091.4603 deg
Eccentricity:    0.0005429
Arg of perigee:   082.7551 deg
Mean anomaly:     277.4235 deg
Mean motion:   14.22052782 rev/day
Decay rate:        1.2e-07 rev/day^2
Epoch rev:           12350
Checksum:              285

Satellite: ARISSAT1
Catalog number: 37772
Epoch time:      12004.04884568
Element set:     479
Inclination:      051.6129 deg
RA of node:       213.1240 deg
Eccentricity:    0.0007478
Arg of perigee:   255.9283 deg
Mean anomaly:     104.1611 deg
Mean motion:   16.41716225 rev/day
Decay rate:  1.3494171e-01 rev/day^2
Epoch rev:            2407
Checksum:              290

Satellite: JUGNU
Catalog number: 37839
Epoch time:      12033.49104480
Element set:    0080
Inclination:      019.9606 deg
RA of node:       100.2643 deg
Eccentricity:    0.0018614
Arg of perigee:   166.8909 deg
Mean anomaly:     193.1923 deg
Mean motion:   14.12021540 rev/day
Decay rate:       6.20e-06 rev/day^2
Epoch rev:           01604
Checksum:              259

Satellite: SRMSAT
Catalog number: 37841
Epoch time:      12033.50275586
Element set:    0081
Inclination:      019.9729 deg
RA of node:       102.4062 deg
Eccentricity:    0.0012250
Arg of perigee:   143.8899 deg
Mean anomaly:     216.2334 deg
Mean motion:   14.10112631 rev/day
Decay rate:       2.64e-06 rev/day^2
Epoch rev:           01602
Checksum:              254

Satellite: RAX-2
Catalog number: 37853
Epoch time:      12034.86954635
Element set:      87
Inclination:      101.7118 deg
RA of node:       014.0423 deg
Eccentricity:    0.0251507
Arg of perigee:   013.4055 deg
Mean anomaly:     347.3665 deg
Mean motion:   14.78700145 rev/day
Decay rate:      5.922e-05 rev/day^2
Epoch rev:            1453
Checksum:              281

Satellite: AUBIESAT
Catalog number: 37854
Epoch time:      12034.85490349
Element set:      89
Inclination:      101.7132 deg
RA of node:       014.1048 deg
Eccentricity:    0.0252526
Arg of perigee:   013.0752 deg
Mean anomaly:     347.6847 deg
Mean motion:   14.78974832 rev/day
Decay rate:      7.030e-05 rev/day^2
Epoch rev:            1452
Checksum:              291

Satellite: HRBE
Catalog number: 37855
Epoch time:      12033.97848028
Element set:    0107
Inclination:      101.7164 deg
RA of node:       012.8265 deg
Eccentricity:    0.0253328
Arg of perigee:   015.5531 deg
Mean anomaly:     345.3267 deg
Mean motion:   14.78884214 rev/day
Decay rate:      6.436e-05 rev/day^2
Epoch rev:           01439
Checksum:              299

Satellite: RS-39
Catalog number: 38051
Epoch time:      12034.62731332
Element set:      29
Inclination:      051.6487 deg
RA of node:       079.8964 deg
Eccentricity:    0.0011251
Arg of perigee:   281.2566 deg
Mean anomaly:     189.9078 deg
Mean motion:   15.22076105 rev/day
Decay rate:      7.636e-05 rev/day^2
Epoch rev:             146
Checksum:              304

/EX


More information about the Keps mailing list